| time (UTC) | temp C | wind direction | speed KPH | gust KPH | rain 1hr cm | rain 24hr cm | rain mn cm | humidity % | barometer mb |
| 20260507084717 | 13 | 276 | 16.1 | 0.0 | 0.00 | 2.82 | 0.00 | 57 | 910.2 |
| 20260507081717 | 12 | 295 | 11.3 | 0.0 | 0.00 | 2.82 | 0.00 | 61 | 910.1 |
| 20260507074717 | 11 | 312 | 6.4 | 0.0 | 0.00 | 2.82 | 0.00 | 65 | 910.0 |
| 20260507064717 | 10 | 0 | 0.0 | 0.0 | 0.00 | 2.82 | 0.00 | 73 | 909.8 |
| 20260507061717 | 10 | 303 | 4.8 | 0.0 | 0.00 | 2.82 | 0.00 | 73 | 909.8 |
| 20260507054717 | 9 | 0 | 0.0 | 0.0 | 0.00 | 2.82 | 0.00 | 75 | 909.6 |
| 20260507051717 | 9 | 0 | 0.0 | 0.0 | 0.00 | 2.82 | 0.00 | 74 | 909.3 |
| 20260507044717 | 8 | 0 | 0.0 | 0.0 | 0.00 | 2.82 | 0.00 | 77 | 909.1 |
| 20260507041717 | 8 | 0 | 0.0 | 0.0 | 0.00 | 2.82 | 0.00 | 76 | 908.9 |
| 20260507034717 | 8 | 292 | 3.2 | 0.0 | 0.00 | 2.82 | 0.00 | 74 | 908.6 |
| 20260507031717 | 8 | 0 | 0.0 | 0.0 | 0.00 | 2.82 | 0.00 | 73 | 908.4 |
| 20260507024717 | 8 | 355 | 3.2 | 0.0 | 0.00 | 2.82 | 0.00 | 74 | 908.5 |
| 20260507021717 | 8 | 0 | 0.0 | 0.0 | 0.00 | 2.82 | 0.00 | 75 | 908.4 |
| 20260507014717 | 8 | 0 | 0.0 | 0.0 | 0.00 | 2.82 | 0.00 | 73 | 908.1 |
| 20260507011717 | 9 | 0 | 0.0 | 0.0 | 0.00 | 2.82 | 0.00 | 71 | 908.1 |
| 20260507004717 | 10 | 0 | 0.0 | 0.0 | 0.00 | 2.82 | 0.00 | 70 | 907.9 |
| 20260507001717 | 9 | 0 | 0.0 | 0.0 | 0.00 | 2.82 | 0.00 | 70 | 907.9 |
| 20260506234717 | 10 | 0 | 0.0 | 0.0 | 0.00 | 2.82 | 0.00 | 69 | 908.0 |
| 20260506231717 | 10 | 0 | 0.0 | 0.0 | 0.00 | 2.82 | 0.00 | 69 | 908.0 |
| 20260506224717 | 11 | 0 | 0.0 | 0.0 | 0.00 | 2.82 | 0.00 | 68 | 908.0 |
| 20260506221717 | 11 | 280 | 8.0 | 0.0 | 0.00 | 2.82 | 0.00 | 68 | 907.9 |
| 20260506214717 | 11 | 282 | 4.8 | 0.0 | 0.00 | 2.82 | 0.00 | 68 | 907.6 |
| 20260506211717 | 11 | 297 | 8.0 | 0.0 | 0.00 | 2.82 | 0.00 | 68 | 907.5 |
| 20260506204717 | 12 | 285 | 9.7 | 0.0 | 0.00 | 2.82 | 0.00 | 67 | 907.1 |
| 20260506201717 | 12 | 288 | 9.7 | 0.0 | 0.00 | 2.82 | 0.00 | 69 | 906.9 |
| 20260506194717 | 13 | 244 | 9.7 | 0.0 | 0.00 | 2.82 | 0.00 | 66 | 906.5 |
| 20260506191717 | 13 | 321 | 14.5 | 0.0 | 0.00 | 2.82 | 0.00 | 62 | 906.1 |
| 20260506184717 | 15 | 286 | 12.9 | 0.0 | 0.00 | 2.82 | 0.00 | 56 | 905.3 |
| 20260506181717 | 15 | 316 | 12.9 | 0.0 | 0.00 | 2.82 | 0.00 | 53 | 904.7 |
| 20260506174717 | 17 | 280 | 12.9 | 0.0 | 0.00 | 2.82 | 0.00 | 48 | 903.8 |
| 20260506171717 | 17 | 280 | 16.1 | 0.0 | 0.00 | 2.82 | 0.00 | 42 | 903.0 |
| 20260506164717 | 18 | 297 | 30.6 | 0.0 | 0.00 | 2.82 | 0.00 | 37 | 902.5 |
| 20260506161717 | 21 | 283 | 22.5 | 0.0 | 0.00 | 2.82 | 0.00 | 33 | 902.2 |
| 20260506154717 | 22 | 87 | 17.7 | 0.0 | 0.00 | 2.82 | 0.00 | 28 | 902.0 |
| 20260506151717 | 23 | 84 | 17.7 | 0.0 | 0.00 | 2.82 | 0.00 | 26 | 902.0 |
| 20260506144717 | 26 | 80 | 20.9 | 0.0 | 0.00 | 2.82 | 0.00 | 23 | 901.8 |
| 20260506141717 | 27 | 155 | 22.5 | 0.0 | 0.00 | 2.82 | 0.00 | 21 | 901.9 |
| 20260506134717 | 25 | 142 | 20.9 | 0.0 | 0.00 | 2.82 | 0.00 | 26 | 902.1 |
| 20260506131717 | 24 | 136 | 33.8 | 0.0 | 0.00 | 2.82 | 0.00 | 27 | 902.1 |
| 20260506124717 | 24 | 131 | 25.7 | 0.0 | 0.00 | 2.82 | 0.00 | 28 | 902.3 |
| 20260506121717 | 23 | 141 | 19.3 | 0.0 | 0.00 | 2.82 | 0.00 | 30 | 902.6 |
| 20260506114717 | 23 | 134 | 17.7 | 0.0 | 0.00 | 2.82 | 0.00 | 29 | 902.8 |
| 20260506111717 | 23 | 115 | 22.5 | 0.0 | 0.00 | 2.82 | 0.00 | 30 | 903.0 |
| 20260506104717 | 22 | 127 | 24.1 | 0.0 | 0.00 | 2.82 | 0.00 | 32 | 903.1 |
| 20260506101717 | 21 | 127 | 19.3 | 0.0 | 0.00 | 2.82 | 0.00 | 34 | 903.8 |
| 20260506094717 | 19 | 134 | 27.4 | 0.0 | 0.00 | 2.82 | 0.00 | 37 | 904.2 |
| 20260506091717 | 19 | 142 | 22.5 | 0.0 | 0.00 | 2.82 | 0.00 | 37 | 904.0 |